SCP
0 0 0 0 0 0 0 0 0 0 0 0 0 0 0 0 0 0 0 0 0 0 0 0 0 0 0 0 0 0 0 0 0 0 0 0 0 0 0 0 0 0 0 0
0 0 0 0 0 0 0 0 0 0 0 0 0 0 0 0 0 0 0 0 0 0 0 0 0 0 0 0 0 0 0 0 0 0 0 0 0 0 0 0 0 0 0 0
0 0 0 0 0 0 0 0 0 0 0 0 0 0 0 0 0 0 0 0 0 0 0 0 0 0 0 0 0 0 0 0 0 0 0 0 0 0 0 0 0 0 0 0
0 0 0 0 0 0 0 0 0 0 0 0 0 0 0 0 0 0 0 0 0 0 0 0 0 0 0 0 0 0 0 0 0 0 0 0 0 0 0 0 0 0 0 0
0 0 0 0 0 0 0 0 0 0 0 0 0 0 0 0 0 0 0 0 0 0 0 0 0 0 0 0 0 0 0 0 0 0 0 0 0 0 0 0 0 0 0 0
0 0 0 0 0 0 0 0 0 0 0 0 0 0 0 0 0 0 0 0 0 0 0 0 0 0 0 0 0 0 0 0 0 0 0 0 0 0 0 0 0 0 0 0
0 0 0 0 0 0 0 0 0 0 0 0 0 0 0 0 0 0 0 0 0 0 0 0 0 0 0 0 0 0 0 0 0 0 0 0 0 0 0 0 0 0 0 0
0 0 0 0 0 0 0 0 0 0 0 0 0 0 0 0 0 0 0 0 0 0 0 0 0 0 0 0 0 0 0 0 0 0 0 0 0 0 0 0 0 0 0 0
0 0 0 0 0 0 0 0 0 0 0 0 0 0 0 0 0 0 0 0 0 0 0 0 0 0 0 0 0 0 0 0 0 0 0 0 0 0 0 0 0 0 0 0
0 0 0 0 0 0 0 0 0 0 0 0 0 0 0 0 0 0 0 0 0 0 0 0 0 0 0 0 0 0 0 0 0 0 0 0 0 0 0 0 0 0 0 0
0 0 0 0 0 0 0 0 0 0 0 0 0 0 0 0 0 0 0 0 0 0 0 0 0 0 0 0 0 0 0 0 0 0 0 0 0 0 0 0 0 0 0 0
0 0 0 0 0 0 0 0 0 0 0 0 0 0 0 0 0 0 0 0 0 0 0 0 0 0 0 0 0 0 0 0 0 0 0 0 0 0 0 0 0 0 0 0
0 0 0 0 0 0 0 0 0 0 0 0 0 0 0 0 0 0 0 0 0 0 0 0 0 0 0 0 0 0 0 0 0 0 0 0 0 0 0 0 0 0 0 0
0 0 0 0 0 0 0 0 0 0 0 0 0 0 0 0 0 0 0 0 0 0 0 0 0 0 0 0 0 0 0 0 0 0 0 0 0 0 0 0 0 0 0 0
0 0 0 0 0 0 0 0 0 0 0 0 0 0 0 0 0 0 0 0 0 0 0 0 0 0 0 0 0 0 0 0 0 0 0 0 0 0 0 0 -0 0 0 0
0 0 0 0 0 0 0 0 0 0 0 0 0 0 0 0 0 0 0 0 0 0 0 0 0 0 0 0 0 0 0 0 0 0 0 0 0 0 0 0 -0 0 0 0
0 0 0 0 0 0 0 0 0 0 0 0 0 0 0 0 0 0 0 0 0 0 0 0 0 0 0 0 0 0 0 0 0 0 0 0 0 0 0 0 -0 0 0 0
0 0 0 0 0 0 0 0 0 0 0 0 0 0 0 0 0 0 0 0 0 0 0 0 0 0 0 0 0 0 0 0 0 0 0 0 0 0 0 0 0 -0 -0 -0
0 0 0 0 0 0 0 0 0 0 0 0 0 0 0 0 0 0 0 0 0 0 0 0 0 0 0 0 0 0 0 0 0 0 0 0 0 0 0 0 0 -0 -0 -0
0 0 0 0 0 0 0 0 0 0 0 0 0 0 0 0 0 0 0 0 0 0 0 0 0 0 0 0 0 0 0 0 0 0 0 0 0 0 0 0 0 0 -0 -0
0 0 0 0 0 0 0 0 0 0 0 0 0 0 0 0 0 0 0 0 0 0 0 0 0 0 0 0 0 0 0 0 0 0 0 0 0 0 0 0 0 0 0 0
0 0 0 0 0 0 0 0 0 0 0 0 0 0 0 0 0 0 0 0 0 0 0 0 0 0 0 0 0 0 0 0 0 0 0 0 0 0 0 0 0 0 0 0
0 0 0 0 0 0 0 0 0 0 0 0 0 0 0 0 0 0 0 0 0 0 0 0 0 0 0 0 0 0 0 0 0 0 0 0 0 0 0 0 0 0 0 0
0 0 0 0 0 0 0 0 0 0 0 0 0 0 0 0 0 0 0 0 0 0 0 0 0 0 0 0 0 0 0 0 0 0 0 0 0 0 0 0 0 0 0 0
0 0 0 0 0 0 0 0 0 0 0 0 0 0 0 0 0 0 0 0 0 0 0 0 0 0 0 0 0 0 0 0 0 0 0 0 0 0 0 0 0 0 0 0
0 0 0 0 0 0 0 0 0 0 0 0 0 0 0 0 0 0 0 0 0 0 0 0 0 0 0 0 0 0 0 0 0 0 0 0 0 0 0 0 0 0 0 0
Wind_Speed
5 8 12 17 19 19 13 16 20 20 17 13 19 21 20 21 22 23 22 20 20 18 14 10 9 9 8 7 7 9 11 12 12 11 12 13 14 13 13 13 15 17 17 18
5 13 17 11 6 10 14 18 22 20 14 10 16 20 17 19 21 21 20 19 16 14 11 9 9 9 10 10 9 8 8 9 11 11 10 9 10 10 12 11 13 16 17 17
15 5 4 9 10 12 16 16 17 19 15 10 13 14 10 11 15 18 18 15 11 8 9 11 13 14 14 15 14 11 9 6 8 10 8 7 7 7 9 12 12 15 16 16
11 5 2 7 12 13 17 13 15 15 12 9 5 15 7 11 15 16 12 7 7 11 13 15 16 18 18 17 15 15 13 8 4 6 9 11 10 10 10 9 10 12 15 16
7 3 5 9 11 9 10 5 6 8 10 12 7 12 9 7 12 10 5 10 14 15 17 18 18 17 18 18 17 16 16 13 8 4 7 10 11 10 8 7 10 12 12 15
7 3 6 6 3 4 3 2 4 3 6 14 9 11 9 6 7 2 10 15 15 16 17 17 17 18 19 19 18 18 18 17 14 8 5 8 11 11 11 10 9 9 9 12
6 5 5 3 3 2 4 3 7 7 7 10 2 7 9 8 3 6 10 13 15 15 16 17 18 19 19 20 20 19 19 18 17 13 9 8 9 11 12 11 10 10 9 10
10 11 5 6 7 4 5 7 8 8 11 14 4 11 7 3 5 10 12 12 13 15 14 15 16 16 16 17 17 18 18 18 18 16 13 10 9 7 8 10 11 11 10 11
8 9 1 3 4 5 6 7 6 5 7 14 15 10 6 3 5 10 11 12 13 12 13 13 13 14 14 14 15 16 16 16 16 16 15 13 11 9 10 11 11 10 11 10
4 11 6 2 2 5 6 3 3 6 8 13 18 22 16 8 4 7 9 10 10 10 11 11 11 12 12 12 13 14 15 15 15 15 14 11 12 12 11 10 11 12 13 13
5 7 8 5 10 14 9 7 10 9 8 10 15 16 1 7 7 6 6 6 7 8 9 9 10 10 11 12 13 13 14 15 15 15 14 14 13 13 12 10 11 11 12 13
8 8 12 16 15 12 17 19 18 15 16 14 15 16 5 9 7 6 4 4 5 7 8 8 9 10 11 12 13 13 14 14 14 14 13 13 13 13 13 12 12 12 12 12
4 6 9 9 7 2 6 8 11 13 12 15 18 12 7 7 5 4 3 2 3 5 7 8 9 10 11 12 12 12 13 13 13 13 13 13 14 14 14 14 13 12 12 12
6 9 14 19 17 10 9 10 9 10 9 11 13 14 11 12 5 1 1 1 1 3 5 7 8 8 9 10 10 11 12 12 12 12 12 13 13 14 14 14 14 13 12 12
2 11 16 19 20 18 18 19 20 21 20 18 19 23 24 16 7 2 2 3 4 5 5 6 7 8 8 9 9 9 10 10 11 11 12 12 13 13 13 14 14 14 13 12
1 6 6 12 17 18 19 23 26 26 25 26 27 29 10 2 1 3 4 5 7 7 7 7 8 8 9 8 9 9 10 10 10 11 11 12 12 13 13 14 14 14 14 13
5 6 8 16 17 15 20 23 26 25 24 24 24 12 4 1 3 6 8 9 10 10 9 9 10 10 9 9 9 10 10 10 10 11 11 11 11 12 13 14 15 15 15 15
11 9 7 8 4 20 15 5 10 16 15 7 1 3 1 3 7 10 11 12 12 12 12 12 11 12 11 10 10 10 10 10 10 11 11 11 12 13 14 15 15 15 15 14
16 12 8 5 11 15 12 7 6 8 7 4 6 4 5 7 11 13 11 11 13 14 13 13 12 12 12 12 10 10 11 11 12 12 12 12 12 13 15 16 17 16 15 16
6 12 10 8 10 11 7 1 3 2 5 4 6 7 9 8 11 13 12 12 14 15 14 13 13 13 13 12 9 11 13 13 14 13 13 13 13 12 15 17 18 17 16 17
4 7 13 14 12 11 5 4 5 6 3 6 9 11 12 13 14 16 17 16 15 16 15 14 14 13 13 11 10 13 15 15 14 13 14 15 14 14 16 17 17 17 17 18
7 7 8 7 10 10 4 7 7 6 5 9 13 14 15 16 17 17 18 18 17 16 15 13 12 13 13 11 12 15 17 16 15 15 16 16 16 16 15 17 18 17 17 18
10 9 6 9 9 5 6 10 10 12 17 19 18 17 17 17 17 18 18 17 14 12 12 11 12 15 15 13 12 16 18 16 16 15 16 17 19 18 17 17 18 17 16 15
12 11 11 12 17 18 17 19 20 20 20 20 18 17 16 17 16 14 12 11 11 11 11 11 13 15 17 15 14 15 16 16 15 18 20 19 19 19 18 15 15 15 14 15
17 8 12 18 21 21 22 22 22 20 17 14 12 9 10 10 9 8 8 9 9 10 11 11 13 16 18 18 18 16 16 17 19 21 20 20 18 18 17 16 15 17 16 17
19 17 18 19 21 18 19 19 17 17 14 7 6 4 1 3 6 7 8 8 9 11 12 13 14 16 18 18 19 18 16 17 19 20 18 16 15 15 15 16 17 24 27 31
Wind_Direction
169 201 217 223 223 248 280 278 277 277 278 278 275 279 283 287 284 278 275 273 273 279 296 318 325 323 312 294 270 254 240 226 214 210 210 213 216 214 214 214 210 206 202 198
173 232 239 252 248 251 260 270 276 281 282 275 281 284 280 268 267 270 276 280 286 300 319 343 353 359 353 343 330 305 272 241 219 214 212 219 225 225 221 217 215 212 208 203
234 265 245 225 234 246 251 258 274 283 301 276 290 282 251 251 259 266 268 275 295 324 353 14 23 23 18 10 359 347 327 286 241 224 217 214 225 236 223 219 217 214 212 209
250 276 232 221 237 239 266 264 269 280 287 287 316 298 259 242 263 268 280 313 15 40 42 37 30 27 23 16 12 9 2 347 298 234 221 218 221 227 230 226 223 217 213 214
241 219 207 230 245 226 254 305 275 271 272 280 245 268 294 217 252 269 328 36 49 50 46 39 34 30 28 23 20 18 18 15 357 289 238 233 239 247 251 240 228 220 213 216
260 227 226 237 257 221 240 299 275 244 263 273 265 242 291 212 235 308 52 52 49 47 45 41 36 33 30 27 25 24 24 22 13 353 299 261 256 258 258 251 240 226 216 215
260 223 224 208 227 164 179 252 289 277 254 273 121 237 263 245 308 31 54 55 50 45 43 37 32 30 28 25 25 25 26 23 17 10 351 318 289 275 266 261 252 240 227 219
283 278 218 199 218 230 198 215 235 267 279 288 259 254 259 273 59 73 70 63 53 47 42 39 34 31 28 26 23 24 25 22 18 15 6 350 326 299 282 273 264 253 242 233
259 272 309 207 219 196 190 216 242 247 273 279 268 257 264 218 110 74 64 55 48 42 37 34 31 29 26 25 24 22 22 21 19 15 11 4 352 330 307 292 277 267 257 248
229 275 273 291 214 230 236 231 183 218 240 253 266 271 267 224 163 72 54 46 41 33 30 28 26 24 23 21 20 21 21 18 15 13 13 7 3 351 332 312 294 279 269 259
191 247 270 242 230 246 228 217 225 234 227 246 262 267 341 131 119 100 73 53 38 31 27 24 21 19 18 18 17 16 15 13 10 8 5 5 5 360 351 336 318 301 285 271
220 241 262 261 261 258 250 243 237 241 241 239 251 260 105 118 116 111 98 68 43 29 24 20 17 14 13 12 11 10 9 8 4 360 358 359 359 358 355 348 336 321 303 286
206 228 265 267 251 214 250 259 260 262 263 253 253 254 128 139 131 114 102 78 43 21 16 10 8 6 4 2 1 1 1 0 356 354 354 354 354 353 349 345 339 330 317 300
291 248 254 268 278 292 279 279 278 273 266 267 262 278 271 271 283 101 116 226 294 338 351 354 352 351 350 350 349 350 350 352 349 347 347 348 348 345 341 337 335 331 323 311
304 262 266 271 278 281 279 278 275 270 271 274 279 281 283 298 313 322 303 285 280 292 306 323 328 327 327 330 332 335 336 340 340 338 339 339 337 336 334 333 332 328 322 313
325 269 279 274 276 278 278 273 270 271 272 271 273 274 297 26 349 313 312 299 288 288 295 301 304 305 305 308 313 316 319 325 327 325 325 327 328 329 329 328 326 323 321 317
247 245 264 271 281 287 264 261 267 269 268 272 276 292 82 37 325 316 311 305 296 292 294 295 298 298 295 293 296 298 303 309 310 310 312 316 320 320 320 321 320 319 318 314
247 249 252 267 263 253 269 305 273 271 275 278 245 131 183 289 303 296 291 289 290 289 292 296 299 298 296 291 289 289 292 295 297 299 301 307 313 313 315 315 312 312 310 307
232 238 233 229 252 269 283 256 225 241 259 201 184 202 268 284 295 288 283 275 276 281 285 291 295 295 294 290 290 289 287 288 289 290 294 301 306 307 308 307 306 307 305 300
215 217 227 224 240 251 264 141 156 194 254 194 203 241 272 282 287 297 307 293 281 278 280 287 294 295 292 293 294 287 287 288 288 290 293 297 297 297 298 299 300 299 296 292
182 204 221 233 245 260 261 169 169 220 236 190 226 253 272 271 272 290 296 293 287 283 284 291 297 296 295 301 298 289 290 290 294 296 294 293 294 295 294 293 291 292 291 289
214 218 214 219 238 255 163 163 207 243 270 278 283 282 279 277 280 285 288 289 290 291 296 303 303 298 301 306 303 295 294 300 302 298 295 295 295 293 290 288 287 285 284 282
225 225 209 202 237 266 188 215 247 275 287 293 292 288 284 282 282 285 289 293 296 302 306 311 308 303 302 307 307 299 302 309 307 302 296 294 292 289 285 282 281 281 277 273
243 235 243 251 260 264 263 263 269 274 277 281 282 283 283 282 285 289 293 299 306 311 315 318 313 305 304 311 312 308 311 313 307 299 296 295 293 289 285 280 275 273 271 271
248 238 242 253 263 273 268 266 268 271 270 269 272 275 282 286 288 295 301 309 314 317 320 318 311 305 305 310 310 312 312 309 301 297 295 294 290 288 286 280 273 273 266 265
249 247 248 256 263 265 270 273 274 271 272 271 275 273 310 315 303 310 307 315 318 316 317 312 308 306 306 307 306 307 305 301 298 296 295 293 290 287 284 283 281 275 272 274